Weather in Millau

France     44˚05′58″N   3˚04′51″E
temp.,
°C
wind,
m/s
gust,
m/s
humid.,
%
clouds,
%
prec.,
mm/h
press.,
hPa
HPBL,
m
27 november, fri
fri2701:00+9˚ese3109390 0.1 1019641
04:00+9˚ese3993100 0.0 1018487
07:00+9˚e3992100 0.0 1018484
10:00+9˚ese31091100 0.1 1017591
13:00+11˚ese5982100 0.1 1015750
16:00+9˚ese4118798 0.1 1014646
19:00+8˚e389085 0.2 1014364
22:00+7˚e3791100 0.0 1014196
28 november, sat
sat2801:00+8˚e31393100 0.0 1013663
04:00+8˚e31193100 0.5 1012636
07:00+8˚e31194100 0.6 1011547
10:00+9˚e41387100 0.3 1011808
13:00+10˚ese41188100 0.8 1010750
16:00+10˚ese5138499 0.1 1010865
19:00+9˚ne118699 0.1 101222
22:00+7˚nne228777 0.0 101334
29 november, sun
sun2901:00+5˚nne228488 0.0 101428
04:00+4˚ne117852 0.0 101422
07:00+3˚nne118126 0.0 101522
10:00+7˚nne11760 0.0 101679
13:00+12˚w13600 0.0 1015517
16:00+11˚wsw25750 0.0 1016248
19:00+5˚wnw11950 0.0 101822
22:00+4˚nne11920 0.0 101922
30 november, mon
mon3001:00+2˚nne11840 0.0 102122
04:00+1˚nne11820 0.0 102122
07:00nne11780 0.0 102222
10:00+5˚nne11630 0.0 102368
13:00+9˚wsw12510 0.0 1022350
16:00+8˚wsw11710 0.0 102243
19:00+3˚nnw11840 0.0 102522
22:00+1˚nne12740 0.0 102622
1 december, tue
tue101:00−1˚nne12760 0.0 102623
04:00−1˚ne11760 0.0 102622
07:00−1˚nne11630 0.0 102624
10:00+4˚n12450 0.0 1026118
13:00+10˚n263735 0.0 1024572
16:00+9˚wnw126049 0.0 102233
19:00+3˚nw227673 0.0 102322
22:00+2˚nnw227685 0.0 102329